This is the latest recevied weather packets stored in our database for station/object DL6MAA-11. If no packets are shown the sender has not sent any weather packets the latest 1 day(s).
| Time | Temp. | Humidity | Pressure | Rain* | Wind** | Luminosity | Snow |
|---|---|---|---|---|---|---|---|
| 1836274782 | 11.67° C | 83% | 1020.1 hPa | 0 mm | 0 m/s | 0 W/m² | - |
| 1836274490 | 11.67° C | 83% | 1020.1 hPa | 0 mm | 0 m/s | 0 W/m² | - |
| 1836274325 | 11.67° C | 83% | 1020.1 hPa | 0 mm | 0 m/s | 0 W/m² | - |
| 1836274183 | 11.67° C | 83% | 1020.1 hPa | 0 mm | 0 m/s | 0 W/m² | - |
| 1836273891 | 11.67° C | 83% | 1020.5 hPa | 0 mm | 0 m/s | 0 W/m² | - |
| 1778017314 | 11.67° C | 78% | 1006.6 hPa | 0.25 mm | 0.45 m/s, 171° | 0 W/m² | - |
| 1778017020 | 11.67° C | 77% | 1006.6 hPa | 0.25 mm | 0.45 m/s, 360° | 0 W/m² | - |
| 1778016711 | 11.67° C | 77% | 1006.6 hPa | 0.25 mm | 0 m/s | 0 W/m² | - |
| 1778016425 | 11.67° C | 76% | 1006.2 hPa | 0.25 mm | 0 m/s | 0 W/m² | - |
| 1778016123 | 11.67° C | 76% | 1006.2 hPa | 0.25 mm | 0 m/s | 0 W/m² | - |
| 1778015825 | 11.67° C | 76% | 1006.2 hPa | 0.25 mm | 0.45 m/s, 360° | 0 W/m² | - |
| 1778015510 | 12.22° C | 75% | 1006.4 hPa | 0.25 mm | 0.45 m/s, 197° | 0 W/m² | - |
| 1778015213 | 12.22° C | 75% | 1006.4 hPa | 0.25 mm | 0.45 m/s, 273° | 0 W/m² | - |
| 1778014914 | 12.22° C | 75% | 1006.4 hPa | 0.25 mm | 0.45 m/s, 267° | 0 W/m² | - |
| 1778014618 | 12.22° C | 75% | 1006.4 hPa | 0.25 mm | 1.34 m/s, 256° | 0 W/m² | - |
| 1778014309 | 12.78° C | 75% | 1006.4 hPa | 0.25 mm | 1.34 m/s, 227° | 0 W/m² | - |
| 1778014017 | 12.78° C | 74% | 1006.4 hPa | 0.25 mm | 0.89 m/s, 360° | 0 W/m² | - |
| 1778013721 | 12.78° C | 74% | 1006.3 hPa | 0.25 mm | 0.89 m/s, 157° | 0 W/m² | - |
| 1778013411 | 13.33° C | 72% | 1006.3 hPa | 0 mm | 1.79 m/s, 252° | 0 W/m² | - |
| 1778013117 | 13.33° C | 71% | 1006.3 hPa | 0 mm | 2.24 m/s, 283° | 0 W/m² | - |
| 1778012825 | 13.33° C | 71% | 1006.5 hPa | 0 mm | 1.79 m/s, 286° | 0 W/m² | - |
| 1778012516 | 13.33° C | 71% | 1006.5 hPa | 0 mm | 1.79 m/s, 360° | 0 W/m² | - |
| 1778012222 | 13.33° C | 71% | 1006.5 hPa | 0 mm | 1.34 m/s, 251° | 0 W/m² | - |
| 1778011927 | 13.89° C | 73% | 1006.4 hPa | 0 mm | 1.34 m/s, 196° | 0 W/m² | - |
| 1778011624 | 13.89° C | 74% | 1006.4 hPa | 0 mm | 1.34 m/s, 360° | 0 W/m² | - |
* Rain since midnight (hover to see other rain measurements)
** Current wind speed in m/s (hover to see current wind gust speed)